Temperature
16 16 16 17 17 17 17 17 17 18 18 18 18 17 17 17 16 16 16 16 16 15 15 15 15 15 15 15 15 15 15 15 15 15 15 15 14 14
16 16 16 16 16 16 17 17 17 17 17 18 18 18 17 17 17 16 16 16 15 15 15 15 15 15 15 15 15 15 15 15 15 15 15 15 15 14
16 16 16 16 16 16 16 16 16 17 17 17 17 17 17 17 17 16 16 15 15 15 16 15 16 15 15 15 15 15 15 15 15 15 15 14 14 14
16 15 16 16 16 16 16 16 16 16 16 17 17 17 17 16 16 16 16 15 15 15 16 16 16 16 16 15 15 15 15 15 15 15 15 14 14 14
15 15 15 15 15 15 16 16 16 16 16 16 16 16 16 16 16 16 16 15 15 15 16 16 16 16 16 15 15 15 15 15 15 15 15 15 14 14
15 15 15 15 15 15 15 15 15 15 15 15 15 16 16 16 16 15 15 15 15 15 15 16 16 15 15 15 15 15 15 15 15 15 15 15 14 14
15 15 15 15 15 15 15 15 15 15 15 15 15 15 15 15 15 15 15 15 15 15 15 15 15 15 15 15 15 15 15 15 15 15 15 14 14 14
15 15 15 14 14 14 14 14 14 14 14 14 14 14 14 14 14 14 14 14 14 15 15 15 15 15 15 15 15 15 15 15 15 14 14 14 14 14
14 14 14 14 14 14 14 14 14 14 13 13 13 14 14 14 14 14 14 14 14 14 14 14 14 14 14 14 14 14 14 14 14 14 14 14 13 13
13 13 13 13 13 13 13 13 13 13 13 13 13 13 13 13 13 13 13 13 13 13 13 13 13 13 13 14 14 14 14 14 13 13 13 13 13 13
13 12 12 12 12 12 12 12 12 12 12 12 12 12 12 12 12 12 12 11 11 12 12 12 12 12 12 13 13 13 13 13 13 13 13 12 12 12
12 11 11 11 11 11 11 11 11 11 11 11 11 11 11 11 11 11 10 10 10 10 11 11 11 11 11 11 12 12 12 12 12 12 12 12 12 12
11 10 10 10 10 10 10 10 10 10 10 10 10 10 10 10 10 10 9 9 9 9 9 9 9 9 9 9 10 10 10 11 11 11 11 11 11 11
10 10 9 10 10 9 9 9 9 9 9 9 9 9 9 9 9 9 9 8 8 8 8 8 8 8 8 8 8 9 9 9 10 10 10 10 10 10
9 9 9 9 9 8 8 8 8 8 8 8 8 8 8 8 8 7 7 7 7 7 7 7 7 7 7 7 7 8 8 8 9 9 9 9 9 9
9 9 9 8 8 8 8 8 7 7 7 7 7 7 6 6 6 6 6 6 6 6 7 7 7 6 6 6 6 7 7 7 8 8 8 8 9 9
8 8 8 8 8 7 7 7 7 6 6 6 6 5 5 5 5 5 5 5 5 5 5 5 6 6 6 6 6 6 6 7 7 7 7 7 8 8
7 7 7 7 6 6 6 6 5 5 5 5 4 4 4 4 4 4 4 4 4 4 4 4 4 5 5 5 6 6 6 6 6 6 6 6 7 7
6 6 6 5 5 5 5 4 4 4 4 4 3 3 3 3 3 3 3 3 3 3 3 3 3 3 3 4 4 5 5 5 5 5 6 6 6 6
5 5 5 4 4 4 3 3 3 3 3 3 2 2 2 2 2 2 2 2 2 2 2 2 2 2 2 2 3 4 5 4 4 5 5 5 5 6
4 4 4 4 3 3 3 2 2 2 2 2 2 2 1 1 1 1 1 1 1 1 1 1 2 2 2 2 2 3 4 4 4 4 4 4 5 5
4 3 3 3 3 2 2 2 2 2 1 1 1 1 1 1 1 1 1 1 1 1 1 1 1 2 2 2 2 2 3 4 4 4 4 4 4 5
3 3 3 2 2 2 1 1 1 1 1 0 0 0 -0 -0 0 0 0 0 0 1 1 1 1 1 2 2 2 2 3 3 4 4 5 5 5 5
Wind_Speed
4 4 3 4 3 3 2 2 1 2 3 4 3 5 7 9 16 16 13 19 20 18 17 16 15 15 14 14 13 13 13 13 13 13 13 13 14 14
3 3 3 4 3 2 2 3 2 2 3 2 3 3 4 6 16 15 13 17 22 22 21 20 19 19 18 17 17 17 17 17 16 16 16 15 15 15
5 5 5 4 4 4 2 3 3 3 3 4 2 1 4 3 6 9 10 11 16 24 26 25 24 23 22 21 20 20 19 19 19 18 18 18 17 17
6 5 5 5 5 4 4 4 3 2 2 4 3 1 2 5 5 6 7 11 12 19 28 28 27 26 24 23 23 22 22 21 21 20 20 19 19 19
6 6 5 5 5 4 4 4 4 4 2 3 4 3 3 4 4 6 7 6 11 13 18 26 27 26 25 25 25 24 24 23 23 22 22 21 21 20
5 4 4 4 4 4 4 4 4 4 4 4 4 4 4 4 3 4 5 5 7 10 8 13 20 26 27 27 26 26 26 25 24 24 23 22 22 21
3 2 3 2 2 2 3 2 3 3 4 4 5 5 4 3 3 3 5 4 5 5 4 4 5 8 14 21 25 27 27 26 25 24 24 23 23 23
2 2 2 2 1 1 2 2 2 4 4 4 5 5 5 4 3 4 3 4 4 3 3 5 4 5 6 10 16 22 25 26 25 24 24 23 23 23
3 2 2 4 5 3 3 3 4 4 5 4 5 5 5 4 5 5 4 5 5 5 5 7 6 7 6 12 13 16 19 22 23 23 23 23 23 23
5 5 4 5 6 6 5 4 3 2 3 3 3 4 5 4 4 5 6 7 7 7 6 7 7 7 8 8 13 13 14 18 21 22 23 23 24 24
6 7 6 5 8 9 5 5 4 4 5 4 4 5 6 7 5 3 5 5 6 6 4 5 5 6 6 6 9 13 14 16 18 21 22 23 24 22
5 6 10 8 9 10 6 5 5 5 6 7 5 6 6 6 6 4 4 5 5 5 4 4 5 5 5 4 4 7 10 13 16 18 20 21 22 14
4 4 4 7 7 7 6 3 4 5 6 6 5 4 4 3 2 2 3 3 5 5 5 5 5 6 6 6 6 6 5 5 8 10 14 18 20 14
4 3 3 4 5 6 4 5 7 7 4 5 4 4 4 4 4 3 5 5 6 7 9 7 6 7 8 9 8 6 6 6 5 6 6 12 13 16
4 5 5 5 6 4 5 7 7 4 4 5 5 5 5 5 5 4 5 6 7 10 11 8 6 6 7 8 8 7 8 7 7 7 6 6 6 6
5 6 8 7 6 6 4 2 2 3 4 4 5 6 6 6 6 6 6 6 7 7 8 11 8 6 7 8 8 9 8 7 7 7 7 7 6 6
7 5 3 2 2 3 4 4 5 5 6 6 6 6 6 7 6 6 6 7 8 8 8 7 9 9 8 8 9 9 8 8 7 7 7 8 7 7
7 5 5 6 7 7 7 7 7 7 7 7 6 6 7 7 7 7 7 8 8 8 8 8 8 8 9 8 7 8 7 8 8 8 8 9 9 8
4 5 6 6 7 7 7 7 7 7 6 6 7 7 7 7 7 7 8 8 8 9 9 9 8 8 10 11 8 9 9 10 9 9 8 9 10 9
5 7 6 6 7 7 7 7 7 7 6 7 7 7 7 8 8 8 8 9 10 10 10 9 8 8 9 11 11 12 14 11 9 10 10 10 10 12
7 7 7 7 6 6 6 6 7 6 7 7 7 8 8 8 8 8 8 11 10 9 10 10 9 12 10 9 10 10 10 13 14 11 11 11 12 11
7 7 6 6 6 5 6 6 7 7 7 7 8 8 8 8 9 10 9 9 9 9 11 10 10 10 9 10 12 13 14 12 13 18 18 16 11 10
6 6 6 6 6 6 6 7 9 8 8 8 9 9 10 10 9 9 9 9 9 10 11 11 10 9 10 10 11 12 15 14 12 11 10 13 18 20
Wind_Direction
241 219 240 278 270 291 311 314 306 296 254 217 185 187 182 170 172 187 192 201 207 212 218 223 227 231 234 237 239 242 244 246 249 252 254 255 255 255
245 259 230 280 276 247 261 283 287 289 296 287 219 187 170 181 178 195 208 206 210 216 222 226 229 232 235 238 241 244 245 247 249 251 253 254 254 254
233 228 220 257 301 314 278 256 256 255 269 286 272 164 156 174 165 216 231 212 213 221 225 227 230 232 235 238 240 243 245 247 249 250 252 253 253 253
229 234 225 230 224 262 299 295 284 278 273 290 297 294 210 202 196 215 240 245 235 230 225 226 229 232 235 237 240 242 244 246 247 249 251 252 253 254
228 227 227 239 237 237 244 275 291 283 242 257 272 268 251 227 217 226 244 257 266 264 231 226 229 232 235 238 241 243 244 246 247 248 250 251 252 253
244 240 237 232 232 240 251 254 271 287 286 265 267 270 261 245 222 223 248 249 254 265 257 232 229 232 236 239 241 243 245 246 247 248 249 251 252 253
258 259 262 259 240 240 262 278 282 279 280 276 272 271 272 276 254 247 255 264 259 253 263 257 237 235 240 244 246 247 245 245 245 246 247 248 250 252
323 324 306 354 336 225 267 293 295 285 291 293 294 297 302 312 319 303 298 298 286 298 315 293 279 263 249 250 245 241 242 242 243 244 245 247 249 251
24 17 355 22 16 355 320 284 266 252 245 267 286 297 306 323 325 315 308 297 280 290 301 282 278 278 276 273 266 252 243 240 240 240 243 246 248 251
46 44 54 34 10 359 340 332 328 328 290 259 267 285 300 315 305 294 289 285 273 268 261 266 270 269 276 283 287 276 258 247 244 243 243 245 248 250
59 48 47 43 20 14 7 360 355 348 352 351 314 292 288 288 284 293 289 286 285 285 282 275 282 286 282 280 283 283 274 261 254 252 251 251 252 254
74 67 54 47 35 25 16 6 359 351 342 332 315 295 277 271 255 237 270 284 290 291 310 324 314 320 301 290 303 316 304 290 276 265 260 259 260 257
58 65 56 40 28 15 1 349 329 318 311 303 298 294 293 291 284 256 255 272 290 292 312 329 313 306 290 293 298 292 288 287 287 280 273 267 264 250
36 45 47 6 348 333 325 316 316 314 300 303 313 325 334 338 336 324 306 287 272 271 280 285 282 284 288 290 292 292 292 291 288 283 279 280 273 263
18 357 325 299 303 297 268 286 304 315 329 334 342 344 340 334 326 316 309 302 294 291 296 294 283 288 287 288 292 294 297 291 285 288 287 284 279 273
360 322 297 277 282 302 311 294 305 356 355 345 342 340 338 336 335 339 334 328 318 308 308 313 309 299 294 290 289 290 288 285 288 287 287 284 278 273
331 307 316 6 2 6 5 12 12 11 6 358 350 344 341 338 337 340 335 329 321 321 322 323 319 312 295 289 289 287 288 289 289 294 298 293 284 278
338 345 20 22 16 12 7 5 9 12 4 351 346 346 342 338 335 336 334 327 321 320 319 319 320 318 312 300 287 299 305 310 312 309 304 297 293 288
347 19 28 21 13 8 5 3 360 357 352 348 346 342 338 334 331 330 329 325 321 320 319 318 316 315 312 308 307 314 312 305 301 296 293 291 291 290
25 26 21 17 14 9 3 359 352 347 351 347 341 341 338 334 330 329 327 326 323 318 314 313 314 318 313 306 302 300 296 290 295 296 296 293 288 286
25 20 18 14 12 8 2 354 349 346 349 343 342 343 337 331 326 323 321 320 316 312 311 309 305 306 300 294 292 293 297 296 291 287 290 292 292 292
20 14 11 8 10 5 360 353 344 343 346 345 342 337 333 327 321 316 315 315 312 308 306 305 305 305 301 298 296 297 300 300 294 286 274 267 273 280
18 7 2 9 15 7 360 347 342 348 353 347 340 333 326 322 317 312 309 307 305 304 305 305 306 305 302 298 295 296 298 302 303 301 292 284 276 267
Height
1549 1550 1551 1553 1554 1554 1555 1555 1556 1556 1556 1556 1556 1557 1558 1558 1558 1559 1559 1559 1559 1559 1559 1559 1559 1559 1559 1558 1558 1558 1558 1558 1558 1559 1559 1559 1560 1560
1547 1548 1549 1550 1552 1553 1553 1554 1554 1554 1554 1554 1555 1555 1555 1556 1556 1556 1556 1556 1556 1556 1556 1556 1556 1555 1555 1555 1554 1554 1554 1554 1554 1554 1555 1555 1555 1556
1545 1546 1547 1548 1549 1550 1551 1552 1552 1552 1552 1552 1553 1553 1553 1553 1553 1553 1553 1553 1552 1552 1552 1552 1552 1551 1551 1551 1550 1550 1550 1550 1550 1550 1550 1550 1550 1551
1543 1544 1544 1545 1546 1547 1547 1548 1549 1549 1550 1549 1550 1550 1550 1550 1550 1549 1549 1549 1549 1548 1548 1548 1548 1547 1547 1546 1546 1545 1545 1545 1545 1545 1545 1545 1545 1545
1541 1541 1542 1543 1543 1544 1544 1545 1545 1546 1546 1546 1546 1546 1546 1546 1545 1545 1545 1545 1545 1545 1544 1543 1543 1543 1542 1542 1541 1540 1540 1540 1539 1539 1539 1539 1539 1539
1538 1538 1539 1539 1540 1540 1541 1541 1541 1542 1542 1542 1542 1542 1542 1542 1541 1541 1540 1540 1540 1540 1539 1538 1538 1537 1537 1536 1535 1535 1534 1534 1534 1533 1533 1533 1533 1533
1534 1535 1536 1536 1536 1537 1537 1537 1538 1538 1538 1538 1537 1537 1537 1537 1536 1536 1536 1535 1535 1535 1534 1533 1532 1531 1531 1530 1530 1529 1528 1528 1527 1527 1527 1527 1526 1526
1531 1531 1532 1532 1532 1532 1533 1533 1534 1534 1533 1533 1533 1533 1532 1532 1531 1531 1530 1530 1529 1530 1528 1527 1527 1525 1525 1524 1523 1523 1522 1521 1521 1520 1520 1520 1519 1519
1527 1527 1528 1528 1528 1528 1528 1528 1529 1529 1529 1529 1528 1527 1527 1527 1526 1525 1525 1524 1523 1523 1523 1520 1520 1518 1518 1517 1517 1516 1515 1514 1514 1513 1513 1512 1511 1511
1524 1524 1524 1524 1524 1524 1524 1523 1523 1523 1523 1523 1523 1522 1522 1521 1521 1520 1518 1517 1516 1516 1516 1514 1513 1511 1511 1510 1510 1509 1508 1507 1506 1506 1505 1504 1503 1502
1521 1521 1521 1521 1521 1520 1520 1519 1519 1519 1519 1518 1518 1517 1516 1515 1514 1513 1512 1511 1510 1509 1510 1508 1506 1504 1502 1502 1502 1502 1501 1500 1499 1498 1497 1496 1495 1494
1520 1519 1519 1519 1518 1517 1517 1516 1515 1515 1514 1513 1513 1512 1511 1510 1509 1508 1507 1506 1504 1504 1503 1502 1500 1498 1495 1494 1495 1494 1493 1492 1491 1490 1489 1488 1487 1486
1519 1518 1518 1517 1516 1515 1514 1513 1512 1512 1511 1510 1509 1508 1508 1506 1505 1504 1503 1502 1501 1499 1498 1497 1494 1492 1490 1487 1487 1487 1486 1484 1483 1482 1481 1480 1479 1478
1518 1517 1517 1516 1515 1514 1513 1512 1511 1510 1509 1508 1507 1506 1505 1503 1501 1500 1499 1497 1496 1494 1493 1492 1489 1487 1485 1481 1480 1479 1479 1477 1476 1474 1473 1472 1471 1470
1517 1517 1516 1515 1514 1513 1512 1511 1510 1508 1507 1506 1505 1503 1502 1500 1498 1496 1494 1493 1491 1490 1488 1487 1485 1482 1480 1477 1474 1472 1471 1470 1469 1467 1466 1464 1463 1462
1516 1516 1515 1515 1514 1513 1512 1510 1509 1508 1506 1505 1503 1501 1499 1497 1495 1493 1490 1488 1486 1484 1483 1482 1479 1477 1474 1472 1469 1466 1465 1463 1462 1460 1458 1456 1455 1454
1516 1515 1515 1514 1513 1512 1511 1510 1508 1506 1504 1503 1501 1499 1497 1495 1492 1490 1487 1484 1482 1479 1477 1475 1474 1471 1469 1467 1464 1461 1459 1457 1455 1454 1451 1448 1446 1446
1516 1516 1515 1514 1513 1512 1510 1509 1507 1505 1502 1501 1499 1497 1494 1492 1489 1487 1484 1481 1478 1476 1473 1471 1468 1464 1462 1460 1460 1456 1453 1451 1448 1447 1444 1441 1438 1438
1517 1517 1515 1514 1513 1512 1510 1508 1506 1504 1501 1499 1497 1495 1492 1489 1487 1484 1481 1478 1475 1472 1470 1467 1464 1461 1458 1454 1452 1452 1448 1445 1442 1440 1438 1435 1432 1429
1518 1517 1516 1514 1513 1511 1509 1507 1505 1503 1500 1498 1496 1493 1490 1487 1484 1481 1478 1475 1472 1468 1465 1463 1461 1458 1455 1451 1446 1443 1443 1440 1437 1434 1431 1428 1424 1422
1519 1518 1516 1515 1513 1511 1509 1506 1504 1502 1499 1496 1494 1491 1488 1485 1482 1478 1475 1472 1468 1465 1461 1458 1456 1453 1450 1446 1442 1438 1436 1435 1432 1429 1425 1421 1417 1413
1520 1518 1517 1515 1512 1510 1508 1505 1503 1500 1497 1494 1491 1488 1485 1482 1478 1475 1472 1468 1465 1461 1457 1454 1451 1448 1445 1441 1437 1433 1429 1426 1424 1422 1419 1416 1412 1407
1520 1518 1517 1514 1512 1509 1507 1504 1502 1499 1495 1492 1489 1485 1482 1478 1475 1472 1468 1465 1461 1457 1454 1450 1446 1443 1440 1437 1433 1428 1424 1421 1417 1414 1411 1409 1406 1403